STARLINK-2503 (48151 NORAD) Tracking and Keplerian Element Data

This shows tracking and keplerian element data for the satellite.

Feedback or suggestion? Click here.




ElementValue
Catalog48151
NameSTARLINK-2503
Epoch Orbit187
Epoch Day136.91668981
Epoch Year2021
RAAN145.4131
Inclination53.0476
Eccentricity0.000245
Argument of Perigee33.851
Mean Anonmoly222.4137
Mean Motion15.73219323
Decay Rate1.923E-05
L11 48151U 21027BM 21136.91668981 .00001923 00000-0 18115-4 0 9997
L22 48151 53.0476 145.4131 0002450 33.8510 222.4137 15.73219323 1879

Live tracking and technical data element details for STARLINK-2503 (NORAD 48151). STARLINK-2503 can be tracked NOW for your location showing map with azimuth and elevation plus other details from your city location.

Track the satellite on the map from your city or location and see movement details for azimuth, elevation, latitude, longitude, range, height, and movement on the map or in text.







IsCatalogInMostPopularTable: catalog: 48151, numindb: 18
Update: records affected: 1



GetName: 48151 STARLINK-2503

Hit Count: updated at: Mon, 17 May 2021 17:03:49 GMT